Location: Newark
(55.7167°N, 12.5667°E)
Time: 15:20:38
(UTC+00:00)

N. Korean satellite - Pass Details

Date: 11 December 2019
Orbit: 454 x 507 km, 97.2° (Epoch: 25 January)

Event Time Altitude Azimuth Distance (km) Brightness Sun altitude
Rises 06:05:23 0° 8° (N) 2,571 10.1 -10.5°
Reaches altitude 10° 06:07:37 10° 358° (N) 1,675 9.0 -10.2°
Maximum altitude 06:10:49 31° 295° (WNW) 863 7.3 -9.8°
Drops below altitude 10° 06:13:57 10° 232° (SW) 1,636 9.0 -9.4°
Sets 06:16:06 0° 222° (SW) 2,499 10.0 -9.2°
